Regional Weather Roundup
Issued by NWS Upton, NY

Current Version | Previous Version | Text Only | Print | Product List | Glossary On
Versions: 1 2 3 4 5 6 7 8 9 10 11 12 13 14 15 16 17 18 19 20 21 22 23 24 25 26 27 28 29 30 31 32 33 34 35 36 37 38 39 40 41 42 43 44 45 46 47 48 49 50
701 ASUS41 KOKX 230309 RWROKX REGIONAL WEATHER ROUNDUP NATIONAL WEATHER SERVICE NEW YORK NY 1100 PM EDT MON MAY 22 2017 NOTE: "FAIR" INDICATES FEW OR NO CLOUDS BELOW 12,000 FEET WITH NO SIGNIFICANT WEATHER AND/OR OBSTRUCTIONS TO VISIBILITY. NYZ071-072-176-178-NJZ106-104-230400- NEW YORK CITY METRO AREA CITY SKY/WX TMP DP RH WIND PRES REMARKS Central Park CLOUDY 60 59 96 CALM 29.98F FOG Wall St Helipt CLOUDY 61 59 94 W5 29.97F Bronx Bot Gard N/A 59 57 94 CALM 29.98F LaGuardia APRT CLOUDY 61 59 93 NW7 29.95F Kennedy INTL MOCLDY 63 61 93 NW7 29.96F Breezy Point N/A 57 N/A N/A W5 N/A Newark/Liberty CLOUDY 59 59 100 W7 29.96F Teterboro CLOUDY 61 60 97 N3 29.95F FOG $$ NYZ177-179-078>081-230400- LONG ISLAND NEW YORK CITY SKY/WX TMP DP RH WIND PRES REMARKS Jones Beach N/A 57 N/A N/A NW3 N/A Matinecock PT NOT AVBL Farmingdale FOG 60 59 96 NW6 29.95F VSB 1/4 MacArthur/ISP FOG 60 60 100 CALM 29.94F VSB 1/2 Shirley CLOUDY 60 60 100 W3 29.95F FOG Mt Sinai Harb N/A 57 N/A N/A NW1 N/A Westhampton FOG 58 57 97 W5 29.97F VSB 1/4 East Hampton CLOUDY 57 57 98 SW5 29.94F FOG Montauk N/A 58 58 100 VRB6 29.96 $$ NYZ052-065-067-230400- HUDSON VALLEY CITY SKY/WX TMP DP RH WIND PRES REMARKS White Plains FOG 58 57 97 NW6 29.95F VSB 1/4 Larchmont Harb N/A 59 N/A N/A NW6 N/A Croton O-T Hud N/A 57 N/A N/A CALM N/A Newburgh CLOUDY 57 57 100 CALM 29.98S FOG Montgomery CLOUDY 58 56 93 CALM 29.96F Poughkeepsie CLOUDY 57 56 96 CALM 29.96F Albany CLOUDY 57 53 86 SW7 29.98S $$ NJZ001-105-106-008-010-013-015-019>022-104-230400- NEW JERSEY CITY SKY/WX TMP DP RH WIND PRES REMARKS Newark/Liberty CLOUDY 59 59 100 W7 29.96F Teterboro CLOUDY 61 60 97 N3 29.95F FOG Caldwell CLOUDY 62 59 90 CALM 29.97F Somerville CLOUDY 60 59 96 CALM 29.95F Linden N/A 59 58 95 NW5 29.97S FOG Perth Amboy N/A 59 N/A N/A W7 N/A Sussex CLOUDY 59 58 96 CALM 29.98F Andover N/A 58 56 93 CALM 29.98S Trenton CLOUDY 61 60 97 N5 29.96F FOG Millville CLOUDY 64 64 100 N3 29.95F FOG Atlantic City FOG 64 63 96 N3 29.96F VSB 1 Wrightstown CLOUDY 63 63 100 NW3 29.94F Toms River CLOUDY 62 62 100 CALM 29.97S Belmar CLOUDY 63 63 100 W5 29.97F FOG $$ PAZ047>061-062-071-230400- EASTERN PENNSYLVANIA CITY SKY/WX TMP DP RH WIND PRES REMARKS Philadelphia CLOUDY 65 61 87 VRB6 29.97F Allentown CLOUDY 61 57 87 W5 29.99S Scranton CLOUDY 60 56 86 SW5 29.98S $$ CTZ002-004>006-009-010-012-RIZ004-006-007-MAZ004-011-015-230400- SOUTHERN NEW ENGLAND IN CT CITY SKY/WX TMP DP RH WIND PRES REMARKS Bradley INTL CLOUDY 53 53 100 N5 29.98S FOG Hartford CLOUDY 55 54 96 N6 29.97F FOG Danbury FOG 54 54 100 CALM 29.98S VSB 1/2 Wtrbury/Oxford N/A 55 52 88 CALM 29.98F VSB<1/4 Bridgeport FOG 59 57 93 N5 29.96S VSB 1/2 Meriden CLOUDY 55 54 96 N3 29.97S New Haven CLOUDY 57 56 96 N3 29.96S FOG Chester FOG 55 55 100 CALM 29.96S VSB 1/4 Groton CLOUDY 57 55 93 CALM 29.94F Wilimantic CLOUDY 57 55 93 CALM 29.97F FOG IN RI CITY SKY/WX TMP DP RH WIND PRES REMARKS Providence LGT RAIN 57 57 100 S8 29.97F Block Island LGT RAIN 56 56 100 S12 29.96F FOG Westerly RAIN 57 56 96 SW3 29.96F FOG IN MA CITY SKY/WX TMP DP RH WIND PRES REMARKS Boston LGT RAIN 53 52 96 N8 29.99F FOG Worcester LGT RAIN 50 48 93 N3 29.98F FOG Westfield CLOUDY 53 53 100 N6 29.98F Provincetown CLOUDY 54 53 97 S13 29.99F Nantucket CLOUDY 54 51 90 SE20 30.00F $$ ANZ330-335-338-340-345-350-353-355-230400- COASTAL MARINE OBSERVATIONS STATION/POSITION TIME SKY/WX TEMP WIND PRES VSBY WAVE AIR SEA DIR/SP/G HT/PER (UTC) (F) (DEG/KT/KT) (MB) (MI) (FT/S) NY HARB ENTRANCE 0150 58 57 250/ 2/ 2 1014.7 2/ 6 20 S FIRE ISLAND 0250 56 54 300/ 6/ 8 1014.0 3/ 6 GREAT SOUTH BAY NOT AVBL 23 SSW MONTAUK P 0250 56 54 1014.2 4/ 5 15 E BARNEGAT LI 0230 57 N/A 3/ 5 HUDSON CANYON 0150 58 54 210/ 4/ 6 1015.0 3/ 6 KINGS POINT 0242 59 56 320/ 5/ 5 1014.2 EXECUTION ROCKS 0245 59 N/A CENTRAL LI SOUND 0230 57 60/ 2/ 4 N/A 1 EASTERN LI SOUND NOT AVBL ROBBINS REEF 0242 61 310/ 6/ 7 1014.9 $$ >>>>>>>>>>>>>>>>>>>>>>>>>>>> KEY <<<<<<<<<<<<<<<<<<<<<<<<<<< > < > SKY/WX - Sky Condition/Present Weather < > TMP - Temperature in Fahrenheit < > DP - Dew Point in Fahrenheit < > RH - Relative Humidity in Percent < > WIND - Direction (from) and Speed in MPH < > PRES - Mean Sea Level Pressure (inches of Hg) < > WCI - Wind Chill Index < > VSB - VISIBILITY IN MILES < > HX - HEAT INDEX < > TC - TEMPERATURE IN CELSIUS < > VRB - VARIABLE WIND DIRECTION < > < >>>>>>>>>>>>>>>>>>>>>>>>>>>> KEY <<<<<<<<<<<<<<<<<<<<<<<<<<<

USA.gov is the U.S. government's official web portal to all federal, state and local government web resources and services.